Starlink 35824

operational
NORAD ID: 66364 Int'l Des: 2025-254 Owner: SPXS Country: US Constellation: starlink
LEOCIRCULAR

About Starlink 35824

Description loading...

Live Position

Loading 3D Globe...

Upcoming Passes

Altitude History

Altitude vs Time

uPlot chart will show altitude changes over time

Two-Line Element Set

1 66364C 25254Y 25311.11298611 .00527380 00000+0 77883-3 0 3112
2 66364 53.1599 93.7471 0009188 262.9798 93.9797 16.03623185 19
Epoch: Nov 7, 2025 • Age: 18 hours

Current Status

Altitude 263.2 km
Velocity 7.75 km/s
Sub-Earth Point -6.25°S, 49.06°W
Launch Date Nov 6, 2025
Age 1 days
Type internet

Technical Details

Classification Payload
Mass 575.00 kg
Dry Mass 530.00 kg
Total Mass 575.00 kg
Length 0.30 m
Diameter 4.10 m
Span 29.00 m
Shape Box + pan
Manufacturer SPXS
Bus Type Starlink V2MO
Phase Status In Orbit
Owner/State SPXS/US

Large Constellations

Loading constellations...